STARLINK-35667

Last updated on Wed Dec 10 2025 00:02:05 GMT+0000 (Coordinated Universal Time)

1 66400U 25257W 25343.66668981 .00107610 00000+0 26705-2 0 9990 2 66400 53.1591 278.6181 0001248 86.3513 210.6025 15.39527187 6006
UTC large
Height (km)
Speed (km/s)
/
Latitude / Longitude
Inclination (degrees)
Orbital Period (minutes)
Azimuth
Elevation
Range (km)
Doppler Factor

Next 0 passes for location: London (51.5072 / 0.1276)

Sorry there are no passes over London.